WELCOME TO TCFT

Voted One Of The Best Flight Schools In The USA

 

 

BECOME AN AIRLINE PILOT

Treasure Coast Flight Training is committed to serving all of your aviation needs as a full service flight academy, aircraft rental facility, and pilot shop

 

 

Questions About Becoming An Airline Pilot?

 

 

What Our Graduates Say

 

 

The training I received with Treasure Coast Flight Training prepared me to become a professional pilot

 

Nathan Meisner

Pilot - Cessna Caravan - USA

Professional yet relaxed environment. Truly an enjoyable experience to fly with TCFT

 

Sophia

Certified Flight Instructor - China

The training I needed to get me to where I am now!

 

Enderson Rafael

Pilot - Go Airlines - Brazil

Thank you TCFT for making me an airline pilot!

 

Kyle Barrett

Pilot - GoJet Airlines - USA

Current Conditions

 

Metar

 

KSUA 211850Z 09010KT 7SM VCTS SCT025 32/23 A3004

 

TAF

 

TAF AMD KSUA 211856Z 2119/2218 09010KT P6SM VCTS SCT030CB BKN250 FM212100 09011KT P6SM SCT035 BKN250 FM220000 09006KT P6SM VCSH SCT030 SCT250 FM221400 09008KT P6SM VCSH SCT025 SCT050

 

 

Look No Further. Get Started Today